[TLELIST] Archives

 

[list_settings.list_name] Current TLEs

April 6th 2021 PST

HST 1 20580U 90037B 21095.94105421 .00000547 00000-0 22165-4 0 9993 2 20580 28.4691 184.8597 0002735 7.3011 158.4689 15.09604798500115 ISS (ZARYA) 1 25544U 98067A 21096.43776852 .00000912 00000-0 24825-4 0 9997 2 25544 51.6463 337.6022 0002945 188.9422 344.4138 15.48860043277477 CXO 1 25867U 99040B 21096.70902456 .00000795 00000-0 00000-0 0 9992 2 25867 56.7102 257.9339 8205936 226.3175 0.3720 0.37808871 10171 ____________________________________________________________________ These 2-Line ...Continue Reading

[list_settings.list_name] Current TLEs

April 5th 2021 PST

HST 1 20580U 90037B 21094.61194601 .00000592 00000-0 24886-4 0 9996 2 20580 28.4692 193.6534 0002676 353.2357 135.0753 15.09603916499914 ISS (ZARYA) 1 25544U 98067A 21095.40132304 .00000091 00000-0 98402-5 0 9992 2 25544 51.6464 342.7293 0002977 186.2211 324.2083 15.48854562277314 CXO 1 25867U 99040B 21096.70902456 .00000795 00000-0 00000-0 0 9992 2 25867 56.7102 257.9339 8205936 226.3175 0.3720 0.37808871 10171 ____________________________________________________________________ These 2-Line ...Continue Reading

[list_settings.list_name] Current TLEs

April 4th 2021 PST

HST 1 20580U 90037B 21093.68973925 .00000635 00000-0 27522-4 0 9994 2 20580 28.4692 199.7548 0002642 343.1677 163.4081 15.09603340499776 ISS (ZARYA) 1 25544U 98067A 21094.43732808 .00001349 00000-0 32793-4 0 9996 2 25544 51.6469 347.4981 0002865 184.2700 347.5009 15.48856370277160 CXO 1 25867U 99040B 21096.70791387 .00000795 00000-0 00000-0 0 9991 2 25867 56.7102 257.9339 8205930 226.3176 0.2204 0.37808902 10166 ____________________________________________________________________ These 2-Line ...Continue Reading

[list_settings.list_name] Current TLEs

April 3rd 2021 PST

HST 1 20580U 90037B 21092.69727241 .00000650 00000-0 28428-4 0 9995 2 20580 28.4692 206.3212 0002599 332.2014 170.0511 15.09602492499627 ISS (ZARYA) 1 25544U 98067A 21093.32761870 .00021185 00000-0 39342-3 0 9990 2 25544 51.6465 352.9848 0002732 182.9871 277.1120 15.48870448276990 CXO 1 25867U 99040B 21094.06574763 .00000776 00000-0 00000+0 0 9993 2 25867 56.7703 258.0231 8201233 226.3340 0.4890 0.37805397 21295 ____________________________________________________________________ These 2-Line ...Continue Reading

[list_settings.list_name] Current TLEs

April 2nd 2021 PST

HST 1 20580U 90037B 21091.63689713 .00000680 00000-0 30221-4 0 9996 2 20580 28.4692 213.3370 0002563 320.2807 167.8667 15.09601609499465 ISS (ZARYA) 1 25544U 98067A 21092.50194420 .00001797 00000-0 40801-4 0 9990 2 25544 51.6469 357.0646 0002855 169.8017 3.4039 15.48977027276864 CXO 1 25867U 99040B 21094.06574763 .00000776 00000-0 00000+0 0 9993 2 25867 56.7703 258.0231 8201233 226.3340 0.4890 0.37805397 21295 ____________________________________________________________________ These 2-Line ...Continue Reading

[list_settings.list_name] Current TLEs

April 1st 2021 PST

HST 1 20580U 90037B 21091.04829878 .00000670 00000-0 29607-4 0 9994 2 20580 28.4691 217.2315 0002553 313.8307 209.1993 15.09600966499555 ISS (ZARYA) 1 25544U 98067A 21091.07082028 .00001678 00000-0 38648-4 0 9995 2 25544 51.6471 4.1435 0003015 165.5839 301.9727 15.48970274276640 CXO 1 25867U 99040B 21091.42165881 .00000790 00000-0 00000-0 0 9994 2 25867 56.8294 258.1046 8196331 226.3691 0.4811 0.37803690 10146 ____________________________________________________________________ These 2-Line ...Continue Reading

[list_settings.list_name] Current TLEs

March 31st 2021 PST

HST 1 20580U 90037B 21089.69977815 .00000729 00000-0 33190-4 0 9994 2 20580 28.4691 226.1539 0002511 298.2555 81.6283 15.09599939499177 ISS (ZARYA) 1 25544U 98067A 21090.24132166 .00001671 00000-0 38531-4 0 9996 2 25544 51.6473 8.2465 0003085 162.7840 356.2009 15.48967005276518 CXO 1 25867U 99040B 21091.42165881 .00000790 00000-0 00000-0 0 9994 2 25867 56.8294 258.1046 8196331 226.3691 0.4811 0.37803690 10146 ____________________________________________________________________ These 2-Line ...Continue Reading

[list_settings.list_name] Current TLEs

March 30th 2021 PST

HST 1 20580U 90037B 21088.70809002 .00000754 00000-0 34744-4 0 9991 2 20580 28.4692 232.7154 0002495 286.7339 93.0797 15.09599009499026 ISS (ZARYA) 1 25544U 98067A 21089.20710780 .00001298 00000-0 31758-4 0 9993 2 25544 51.6468 13.3613 0003116 158.9267 349.1906 15.48961069276352 CXO 1 25867U 99040B 21091.42165881 .00000790 00000-0 00000-0 0 9994 2 25867 56.8294 258.1046 8196331 226.3691 0.4811 0.37803690 10146 ____________________________________________________________________ These 2-Line ...Continue Reading

[list_settings.list_name] Current TLEs

March 29th 2021 PST

HST 1 20580U 90037B 21087.80528007 .00000805 00000-0 37813-4 0 9991 2 20580 28.4692 238.6887 0002489 276.1856 227.5322 15.09598275498889 ISS (ZARYA) 1 25544U 98067A 21088.42590457 .00001670 00000-0 38526-4 0 9997 2 25544 51.6469 17.2260 0003105 156.8443 312.2133 15.48959689276230 CXO 1 25867U 99040B 21088.77901970 .00000896 00000-0 00000-0 0 9992 2 25867 56.9027 258.2166 8195147 226.3802 0.6903 0.37813003 10135 ____________________________________________________________________ These 2-Line ...Continue Reading

[list_settings.list_name] Current TLEs

March 28th 2021 PST

HST 1 20580U 90037B 21087.14769449 .00000823 00000-0 38906-4 0 9999 2 20580 28.4693 243.0395 0002491 268.5324 254.4181 15.09597585498966 ISS (ZARYA) 1 25544U 98067A 21087.39139213 .00002048 00000-0 45393-4 0 9991 2 25544 51.6461 22.3419 0003044 153.4826 303.0746 15.48956491276073 CXO 1 25867U 99040B 21088.77901970 .00000896 00000-0 00000-0 0 9992 2 25867 56.9027 258.2166 8195147 226.3802 0.6903 0.37813003 10135 ____________________________________________________________________ These 2-Line ...Continue Reading
  • This mailing list is a public mailing list - anyone may join or leave, at any time.
  • This mailing list is announce-only.

International Space Station (ISS) / Hubble Space Telescope (HST) / Chandra X-Ray Observatory Orbital Data via EMAIL

Privacy Policy:

Private list